TimeCDT,TemperatureF,Dew PointF,Humidity,Sea Level PressureIn,VisibilityMPH,Wind Direction,Wind SpeedMPH,Gust SpeedMPH,PrecipitationIn,Events,Conditions,WindDirDegrees,DateUTC
12:53 AM,57.9,54.0,87,30.05,10.0,NW,6.9,-,N/A,,Clear,310,2013-06-30 05:53:00
1:53 AM,57.0,54.0,89,30.06,10.0,NW,5.8,-,N/A,,Clear,320,2013-06-30 06:53:00
2:53 AM,55.9,53.1,90,30.06,10.0,NW,5.8,-,N/A,,Clear,320,2013-06-30 07:53:00
3:53 AM,54.0,53.1,97,30.06,10.0,NW,5.8,-,N/A,,Clear,320,2013-06-30 08:53:00
4:53 AM,55.9,53.1,90,30.06,10.0,NNW,5.8,-,N/A,,Clear,330,2013-06-30 09:53:00
5:53 AM,55.0,53.1,93,30.09,10.0,NW,5.8,-,N/A,,Clear,320,2013-06-30 10:53:00
6:53 AM,55.9,53.1,90,30.11,10.0,NNW,4.6,-,N/A,,Clear,330,2013-06-30 11:53:00
7:53 AM,61.0,55.9,83,30.12,10.0,NW,3.5,-,N/A,,Clear,310,2013-06-30 12:53:00
8:53 AM,64.9,57.0,75,30.12,10.0,NW,8.1,-,N/A,,Clear,320,2013-06-30 13:53:00
9:53 AM,66.9,57.9,73,30.13,10.0,NW,9.2,-,N/A,,Clear,320,2013-06-30 14:53:00
10:53 AM,73.0,57.9,59,30.12,10.0,NNW,9.2,-,N/A,,Clear,340,2013-06-30 15:53:00
11:53 AM,73.0,54.0,51,30.11,10.0,NNW,9.2,19.6,N/A,,Mostly Cloudy,340,2013-06-30 16:53:00
12:53 PM,77.0,55.9,48,30.10,10.0,North,11.5,19.6,N/A,,Scattered Clouds,350,2013-06-30 17:53:00
1:53 PM,78.1,57.0,48,30.10,10.0,NNE,8.1,-,N/A,,Mostly Cloudy,20,2013-06-30 18:53:00
2:53 PM,80.1,57.0,45,30.10,10.0,NE,15.0,20.7,N/A,,Partly Cloudy,50,2013-06-30 19:53:00
3:53 PM,79.0,54.0,42,30.10,10.0,NE,12.7,-,N/A,,Partly Cloudy,50,2013-06-30 20:53:00
4:53 PM,78.1,53.1,42,30.09,10.0,NE,11.5,-,N/A,,Scattered Clouds,50,2013-06-30 21:53:00
5:53 PM,78.1,54.0,43,30.10,10.0,NE,9.2,-,N/A,,Partly Cloudy,50,2013-06-30 22:53:00
6:53 PM,75.9,54.0,46,30.10,10.0,NE,11.5,-,N/A,,Partly Cloudy,50,2013-06-30 23:53:00
7:53 PM,73.9,51.1,45,30.11,10.0,ENE,11.5,-,N/A,,Clear,70,2013-07-01 00:53:00
8:53 PM,68.0,50.0,52,30.12,10.0,East,8.1,-,N/A,,Clear,80,2013-07-01 01:53:00
9:53 PM,60.1,53.1,78,30.15,10.0,Calm,Calm,-,N/A,,Clear,0,2013-07-01 02:53:00
10:53 PM,55.9,50.0,80,30.17,10.0,Calm,Calm,-,N/A,,Clear,0,2013-07-01 03:53:00
11:53 PM,54.0,50.0,86,30.18,10.0,Calm,Calm,-,N/A,,Clear,0,2013-07-01 04:53:00